Home   Weather   Warendorf   Past weeks

Flag for Germany Past Weather in Warendorf, North Rhine-Westphalia, Germany — Yesterday and Last 2 Weeks

Now
21 °F

Cold.


Feels Like: 21 °F
Forecast: 26 / 32 °F
Wind: No wind

Location: Muenster / Osnabrueck

Current Time: Jan 22, 2017 at 6:58:03 am

Latest Report: Jan 22, 2017 at 6:20 am


Visibility: N/A

Pressure: 30.33 "Hg

Humidity: 93%

Dew Point: 19 °F

Location of WarendorfLocation

Past Weather in Warendorf — Graph

°F

Warendorf Temperature Yesterday

Maximum temperature yesterday: 41 °F (at 1:20 pm)
Minimum temperature yesterday: 23 °F (at 2:20 am)
Average temperature yesterday: 31 °F

High & Low Weather Summary for the Past Weeks

 TemperatureHumidityPressure
High46 °F (Jan 11, 1:50 pm)100% (Jan 7, 4:20 pm)30.74 "Hg (Jan 7, 4:20 pm)
Low21 °F (Jan 20, 1:50 am)36% (Jan 20, 1:50 pm)28.94 "Hg (Jan 13, 2:20 am)
Average32 °F88%30.17 "Hg
* Reported Jan 7 5:20 am — Jan 22 5:50 am, Warendorf, Weather by CustomWeather, © 2017

Note: Actual official high and low records may vary slightly from our data, if they occured in-between our weather recording intervals... More about our weather records

Advertising

Warendorf Weather History for the Previous 24 Hours

Scroll right to see more
 ConditionsComfort  
Time TempWeatherWind HumidityBarometerVisibility
5:50 am
Sun, Jan 22
21 °FFog.No wind93%30.33 "HgN/A
5:20 am21 °FClear.No wind100%30.33 "Hg10 mi
4:50 am21 °FClear.No wind100%30.36 "Hg10 mi
4:20 am23 °FClear.1 mph93%30.36 "Hg10 mi
3:50 am23 °FClear.1 mph93%30.36 "Hg10 mi
3:20 am23 °FClear.1 mph93%30.36 "Hg10 mi
2:50 am23 °FClear.No wind93%30.36 "Hg10 mi
2:20 am25 °FClear.2 mph86%30.36 "Hg10 mi
1:50 am23 °FClear.No wind93%30.36 "Hg10 mi
1:20 am25 °FClear.No wind86%30.36 "Hg10 mi
12:20 am28 °FClear.1 mph74%30.36 "Hg10 mi
11:50 pm
Sat, Jan 21
30 °FClear.2 mph75%30.36 "Hg10 mi
11:20 pm30 °FClear.2 mph75%30.36 "Hg10 mi
10:50 pm30 °FPassing clouds.3 mph75%30.36 "HgN/A
10:20 pm32 °FPassing clouds.3 mph75%30.36 "HgN/A
9:50 pm30 °FClear.2 mph80%30.36 "Hg10 mi
9:20 pm27 °FClear.2 mph93%30.36 "Hg10 mi
8:50 pm28 °FClear.1 mph86%30.36 "Hg10 mi
8:20 pm28 °FClear.No wind86%30.39 "Hg10 mi
7:50 pm30 °FClear.2 mph86%30.39 "Hg10 mi
7:20 pm30 °FClear.2 mph80%30.39 "Hg10 mi
6:50 pm32 °FClear.2 mph80%30.39 "Hg10 mi
6:20 pm32 °FPassing clouds.3 mph80%30.39 "HgN/A
5:50 pm32 °FClear.2 mph80%30.39 "Hg10 mi
5:20 pm36 °FPassing clouds.3 mph70%30.39 "HgN/A
4:50 pm37 °FPassing clouds.3 mph65%30.39 "HgN/A
4:20 pm39 °FSunny.2 mph61%30.39 "Hg10 mi
3:50 pm39 °FPassing clouds.5 mph61%30.39 "HgN/A
3:20 pm39 °FPassing clouds.5 mph65%30.39 "HgN/A
2:50 pm41 °FPassing clouds.5 mph57%30.39 "HgN/A
2:20 pm41 °FSunny.5 mph57%30.39 "Hg10 mi
1:50 pm41 °FSunny.3 mph57%30.42 "Hg10 mi
1:20 pm41 °FPassing clouds.5 mph61%30.42 "HgN/A
12:50 pm39 °FPassing clouds.5 mph65%30.42 "HgN/A
12:20 pm39 °FPassing clouds.5 mph65%30.45 "HgN/A
11:50 am37 °FPassing clouds.6 mph75%30.45 "HgN/A
11:20 am36 °FPassing clouds.3 mph81%30.45 "HgN/A
10:50 am34 °FPassing clouds.5 mph87%30.45 "HgN/A
10:20 am32 °FPassing clouds.5 mph87%30.45 "HgN/A
9:50 am32 °FPassing clouds.5 mph87%30.48 "HgN/A
9:20 am30 °FPassing clouds.3 mph93%30.45 "HgN/A
8:50 am28 °FPassing clouds.3 mph100%30.45 "HgN/A
8:20 am28 °FFog.3 mph100%30.45 "HgN/A
7:50 am28 °FPassing clouds.3 mph93%30.45 "HgN/A
7:20 am28 °FPassing clouds.3 mph93%30.45 "HgN/A
6:50 am28 °FPassing clouds.5 mph100%30.45 "HgN/A
6:20 am27 °FFog.3 mph100%30.48 "HgN/A
Weather by CustomWeather, © 2017

See weather overviewHow to use our weather pages